Weather in Stary Iskitim

Russia / Novosibirsk Oblast     54°36′42″N   83°23′28″E
temp.,
°C
wind,
m/s
gust,
m/s
humid.,
%
clouds,
%
prec.,
mm/h
press.,
hPa
HPBL,
m
27 november, sat
sat2701:00−15ssw51192100 0.0 1036272
04:00−12ssw61491100 0.0 1036510
07:00−11ssw71491100 0.1 1036647
10:00−11ssw71491100 0.1 1036651
13:00−9ssw81593100 0.4 1035678
16:00−8ssw81693100 0.6 1034750
19:00−7sw91789100 0.9 1032880
22:00−6sw101890100 0.3 1031883
28 november, sun
sun2801:00−6sw101889100 0.5 1029813
04:00−6sw101790100 0.2 1029785
07:00−6wsw81594100 1.6 1030768
10:00−7wsw71394100 0.8 1031619
13:00−6wsw71393100 1.2 1032603
16:00−6sw6129399 0.3 1034533
19:00−7sw71293100 0.4 1035451
22:00−9sw5109494 0.1 1037264
29 november, mon
mon2901:00−11sw499572 0.1 1038155
04:00−13ssw359657 0.0 103874
07:00−13s369595 0.0 103893
10:00−13s379599 0.0 1037111
13:00−10s379114 0.0 1036178
16:00−10s379170 0.0 1034120
19:00−12s369299 0.0 103473
22:00−12s3888100 0.0 1033107
30 november, tue
tue3001:00−12s3985100 0.0 1032137
04:00−11s4983100 0.0 1031159
07:00−11s51183100 0.0 1030191
10:00−10ssw4118545 0.0 1030193
13:00−8ssw4118466 0.0 1029239
16:00−8ssw4987100 0.0 1029190
19:00−11ssw38905 0.0 1030104
22:00−15ssw33935 0.0 103135
1 december, wed
wed101:00−15s34925 0.0 103144
04:00−18s339650 0.0 103225
07:00−17sse339693 0.0 103232
10:00−15sse35938 0.0 103264
13:00−9sse410865 0.0 1030204
16:00−8sse47856 0.0 1029120
19:00−9s47865 0.0 102892
22:00−8s513775 0.0 1027188